Погода в Орше

Беларусь     54°30′38″N   30°25′46″E
темп.,
°C
ветер,
м/с
пор.,
м/с
влажн.,
%
обл.,
%
осадки,
мм/ч
давл.,
гПа
погр.,
м
21 января, пт
пт2100:00−3ююз7149587 0.1 996619
03:00−5юз7148588 0.3 995592
06:00−6ю8169399 0.1 992701
09:00−4ю71395100 0.6 990639
12:00−3юз61097100 0.6 990642
15:00−3зсз61195100 1.7 991833
18:00−4зсз6138992 0.4 993649
21:00−7зсз5119250 0.4 995336
22 января, сб
сб2200:00−10зсз4109460 0.0 997156
03:00−9зсз499697 0.1 999194
06:00−7сз599597 0.3 1000384
09:00−7ссз6119494 0.6 1003404
12:00−8ссз51094100 0.1 1007417
15:00−6ссз4892100 0.1 1008593
18:00−8с259798 0.1 101185
21:00−9ссз499686 0.1 1013218
23 января, вс
вс2300:00−10с489698 0.1 1016187
03:00−12ссз389891 0.1 1018170
06:00−14с389894 0.1 1021140
09:00−16с379982 0.1 102491
12:00−12ссв349585 0.0 1027140
15:00−9св239343 0.0 1029153
18:00−15ссв229863 0.0 103322
21:00−18св2210074 0.0 103411
24 января, пн
пн2400:00−19ссв22100100 0.0 103710
03:00−20ссв22100100 0.0 103710
06:00−20всв11100100 0.0 10379
09:00−21всв22100100 0.0 10389
12:00−12в229677 0.0 103783
15:00−8юв12925 0.0 1036124
18:00−15юв1110055 0.0 10369
21:00−18ююз2210092 0.0 10359
25 января, вт
вт2500:00−18ююз3310099 0.0 103435
03:00−18юз36100100 0.0 103258
06:00−17ююз479980 0.0 102987
09:00−14ююз51194100 0.0 1026156
12:00−8ююз6119391 0.1 1023261
15:00−5ююз51096100 0.9 1020345
18:00−5юз4796100 0.8 1019266
21:00−5юз3797100 1.4 1018201